When you browse on this site, cookies collect data to enhance your experience and personalize the content and advertising you see.
Visit our Privacy Policy to learn more. By continuing to use the site, you agree to this use of cookies and data.
  • In Romania
  • List of Countries
  • For 7 days
  • Water Temperature
  • Satellite Maps
  • Weather Map
  • Weather Widgets
  • user-avatar
    Login

    Hourly Weather Savigny-sur-Orge

    Today, 16 June, Sunday

    Time Temperature Precipitation Wind Pressure Humidity
    00:00 +13°C° 0 mm 3 mps 758 mmHg 86%
    01:00 +12°C° 0 mm 3 mps 758 mmHg 87%
    02:00 +12°C° 0 mm 3 mps 758 mmHg 89%
    03:00 +11°C° 0 mm 3 mps 758 mmHg 90%
    04:00 +12°C° 0 mm 3 mps 758 mmHg 89%
    05:00 +12°C° 0 mm 3 mps 758 mmHg 88%
    06:00 +13°C° 0 mm 3 mps 759 mmHg 87%
    07:00 +14°C° 0 mm 3 mps 759 mmHg 83%
    08:00 +16°C° 0 mm 3 mps 759 mmHg 79%
    09:00 +17°C° 0 mm 3 mps 759 mmHg 75%
    10:00 +19°C° 0.1 mm 3 mps 759 mmHg 71%
    11:00 +20°C° 0.1 mm 3 mps 759 mmHg 67%
    12:00 +21°C° 0.1 mm 3 mps 759 mmHg 63%
    13:00 +21°C° 0.1 mm 3 mps 759 mmHg 62%
    14:00 +22°C° 0.1 mm 3 mps 759 mmHg 61%
    15:00 +22°C° 0.1 mm 3 mps 758 mmHg 59%
    16:00 +22°C° 0 mm 3 mps 758 mmHg 62%
    17:00 +21°C° 0 mm 3 mps 758 mmHg 65%
    18:00 +21°C° 0 mm 2 mps 758 mmHg 68%
    19:00 +20°C° 0 mm 2 mps 758 mmHg 72%
    20:00 +19°C° 0 mm 1 mps 759 mmHg 75%
    21:00 +18°C° 0 mm 1 mps 759 mmHg 79%
    22:00 +16°C° 0 mm 1 mps 759 mmHg 80%
    23:00 +16°C° 0 mm 1 mps 759 mmHg 82%

    Tomorrow, 17 June, Monday

    Time Temperature Precipitation Wind Pressure Humidity
    00:00 +15°C° 0 mm 1 mps 759 mmHg 83%
    01:00 +15°C° 0 mm 1 mps 758 mmHg 84%
    02:00 +14°C° 0 mm 0 mps 758 mmHg 85%
    03:00 +13°C° 0 mm 0 mps 758 mmHg 85%
    04:00 +14°C° 0 mm 0 mps 758 mmHg 84%
    05:00 +15°C° 0 mm 0 mps 758 mmHg 82%
    06:00 +16°C° 0 mm 0 mps 758 mmHg 81%
    07:00 +18°C° 0 mm 0 mps 758 mmHg 74%
    08:00 +19°C° 0 mm 0 mps 758 mmHg 68%
    09:00 +21°C° 0 mm 0 mps 758 mmHg 61%
    10:00 +22°C° 0 mm 0 mps 758 mmHg 56%
    11:00 +24°C° 0 mm 0 mps 758 mmHg 52%
    12:00 +25°C° 0 mm 0 mps 758 mmHg 47%
    13:00 +27°C° 0 mm 1 mps 757 mmHg 46%
    14:00 +27°C° 0 mm 1 mps 757 mmHg 46%
    15:00 +27°C° 0 mm 1 mps 756 mmHg 45%
    16:00 +27°C° 0 mm 1 mps 756 mmHg 50%
    17:00 +26°C° 0 mm 1 mps 756 mmHg 55%
    18:00 +25°C° 0 mm 1 mps 756 mmHg 60%
    19:00 +24°C° 0 mm 1 mps 756 mmHg 64%
    20:00 +22°C° 0 mm 1 mps 756 mmHg 68%
    21:00 +21°C° 0 mm 1 mps 756 mmHg 72%
    22:00 +20°C° 0 mm 1 mps 756 mmHg 75%
    23:00 +20°C° 0 mm 1 mps 756 mmHg 77%

    Day after tomorrow, 18 June, Tuesday

    Time Temperature Precipitation Wind Pressure Humidity
    00:00 +19°C° 0 mm 1 mps 756 mmHg 80%
    01:00 +19°C° 0 mm 1 mps 755 mmHg 82%
    02:00 +18°C° 0 mm 1 mps 755 mmHg 84%
    03:00 +17°C° 0 mm 2 mps 755 mmHg 85%
    04:00 +17°C° 0 mm 2 mps 755 mmHg 84%
    05:00 +18°C° 0 mm 2 mps 755 mmHg 82%
    06:00 +18°C° 0 mm 2 mps 755 mmHg 81%
    07:00 +20°C° 0 mm 2 mps 755 mmHg 76%
    08:00 +21°C° 0 mm 2 mps 755 mmHg 71%
    09:00 +24°C° 0 mm 2 mps 755 mmHg 66%
    10:00 +25°C° 0 mm 2 mps 754 mmHg 60%
    11:00 +26°C° 0 mm 2 mps 754 mmHg 54%
    12:00 +28°C° 0 mm 2 mps 754 mmHg 48%
    13:00 +28°C° 0 mm 2 mps 753 mmHg 48%
    14:00 +28°C° 0 mm 2 mps 753 mmHg 49%
    15:00 +28°C° 0 mm 3 mps 753 mmHg 49%
    16:00 +28°C° 0 mm 2 mps 752 mmHg 53%
    17:00 +27°C° 0 mm 2 mps 752 mmHg 56%
    18:00 +27°C° 0 mm 2 mps 752 mmHg 60%
    19:00 +26°C° 0 mm 2 mps 752 mmHg 62%
    20:00 +24°C° 0 mm 2 mps 752 mmHg 65%
    21:00 +23°C° 0 mm 2 mps 752 mmHg 68%
    22:00 +21°C° 0 mm 2 mps 752 mmHg 70%
    23:00 +21°C° 0 mm 2 mps 751 mmHg 72%

    19 June, Wednesday

    Time Temperature Precipitation Wind Pressure Humidity
    00:00 +20°C° 0 mm 2 mps 751 mmHg 74%
    01:00 +20°C° 0 mm 2 mps 751 mmHg 78%
    02:00 +19°C° 0 mm 2 mps 750 mmHg 81%
    03:00 +19°C° 0 mm 2 mps 750 mmHg 84%
    04:00 +19°C° 0.1 mm 2 mps 750 mmHg 84%
    05:00 +20°C° 0.1 mm 2 mps 750 mmHg 83%
    06:00 +20°C° 0.1 mm 2 mps 750 mmHg 83%
    07:00 +23°C° 0 mm 2 mps 750 mmHg 76%
    08:00 +25°C° 0 mm 2 mps 750 mmHg 70%
    09:00 +27°C° 0 mm 2 mps 750 mmHg 64%
    10:00 +28°C° 0 mm 2 mps 750 mmHg 60%
    11:00 +29°C° 0 mm 3 mps 749 mmHg 56%
    12:00 +30°C° 0 mm 3 mps 749 mmHg 52%
    13:00 +30°C° 0.3 mm 4 mps 749 mmHg 54%
    14:00 +30°C° 0.3 mm 5 mps 749 mmHg 55%
    15:00 +29°C° 0.3 mm 6 mps 749 mmHg 56%
    16:00 +28°C° 0.4 mm 6 mps 749 mmHg 61%
    17:00 +26°C° 0.4 mm 6 mps 749 mmHg 66%
    18:00 +25°C° 0.4 mm 5 mps 749 mmHg 71%
    19:00 +23°C° 0.1 mm 5 mps 750 mmHg 73%
    20:00 +21°C° 0.1 mm 5 mps 751 mmHg 76%
    21:00 +20°C° 0.1 mm 4 mps 751 mmHg 79%
    22:00 +19°C° 0 mm 4 mps 751 mmHg 81%
    23:00 +18°C° 0 mm 4 mps 751 mmHg 82%

    20 June, Thursday

    Time Temperature Precipitation Wind Pressure Humidity
    00:00 +17°C° 0 mm 4 mps 752 mmHg 84%
    01:00 +17°C° 0 mm 4 mps 752 mmHg 85%
    02:00 +16°C° 0 mm 3 mps 752 mmHg 87%
    03:00 +16°C° 0 mm 3 mps 752 mmHg 88%
    04:00 +16°C° 0 mm 3 mps 752 mmHg 87%
    05:00 +16°C° 0 mm 3 mps 753 mmHg 87%
    06:00 +17°C° 0 mm 3 mps 753 mmHg 86%
    07:00 +17°C° 0.1 mm 3 mps 753 mmHg 83%
    08:00 +18°C° 0.1 mm 3 mps 753 mmHg 81%
    09:00 +19°C° 0.1 mm 3 mps 754 mmHg 78%
    10:00 +20°C° 0.3 mm 3 mps 754 mmHg 74%
    11:00 +21°C° 0.3 mm 3 mps 754 mmHg 70%
    12:00 +22°C° 0.3 mm 3 mps 754 mmHg 67%
    13:00 +22°C° 0.7 mm 3 mps 754 mmHg 68%
    14:00 +22°C° 0.7 mm 3 mps 754 mmHg 68%
    15:00 +21°C° 0.7 mm 3 mps 754 mmHg 69%
    16:00 +21°C° 0.7 mm 2 mps 754 mmHg 71%
    17:00 +21°C° 0.7 mm 2 mps 753 mmHg 72%
    18:00 +20°C° 0.7 mm 2 mps 753 mmHg 74%
    19:00 +19°C° 0.1 mm 2 mps 754 mmHg 75%
    20:00 +18°C° 0.1 mm 2 mps 754 mmHg 76%
    21:00 +17°C° 0.1 mm 2 mps 754 mmHg 77%
    22:00 +17°C° 0 mm 2 mps 754 mmHg 78%
    23:00 +17°C° 0 mm 2 mps 754 mmHg 79%

    21 June, Friday

    Time Temperature Precipitation Wind Pressure Humidity
    00:00 +16°C° 0 mm 2 mps 755 mmHg 80%
    01:00 +16°C° 0 mm 3 mps 755 mmHg 78%
    02:00 +16°C° 0 mm 3 mps 755 mmHg 76%
    03:00 +14°C° 0 mm 3 mps 755 mmHg 74%
    04:00 +14°C° 0 mm 3 mps 755 mmHg 74%
    05:00 +15°C° 0 mm 2 mps 755 mmHg 75%
    06:00 +15°C° 0 mm 2 mps 755 mmHg 76%
    07:00 +16°C° 0 mm 2 mps 756 mmHg 69%
    08:00 +18°C° 0 mm 2 mps 756 mmHg 62%
    09:00 +19°C° 0 mm 2 mps 756 mmHg 55%
    10:00 +20°C° 0 mm 2 mps 756 mmHg 53%
    11:00 +21°C° 0 mm 2 mps 756 mmHg 50%
    12:00 +22°C° 0 mm 3 mps 756 mmHg 47%
    13:00 +22°C° 0 mm 3 mps 756 mmHg 48%
    14:00 +22°C° 0 mm 3 mps 756 mmHg 48%
    15:00 +21°C° 0 mm 3 mps 756 mmHg 49%
    16:00 +21°C° 0 mm 3 mps 756 mmHg 52%
    17:00 +20°C° 0 mm 3 mps 757 mmHg 55%
    18:00 +20°C° 0 mm 2 mps 757 mmHg 58%
    19:00 +19°C° 0 mm 2 mps 757 mmHg 63%
    20:00 +17°C° 0 mm 2 mps 758 mmHg 67%
    21:00 +16°C° 0 mm 2 mps 758 mmHg 72%
    22:00 +15°C° 0 mm 2 mps 758 mmHg 74%
    23:00 +15°C° 0 mm 2 mps 758 mmHg 76%
    Show more